"Pseudo-MPEC" for P10N3or

Created 2019 Apr 21 15:07:27 UT using Find_Orb

Click here for an explanation of pseudo-MPECs

 
 Astrometry: 
     P10N3or  C2019 04 096M\chy?X4qOqq-Gk.%Xq7cA^,ggY@ptF,]4+Wl?Nujy(7jjpHa2]F51
     P10N3or  C2019 04 09Er$2Qx+!rQa0elA1eAstrometryIaUIClm4bpPJ(gITk\_jg;rL7F51
     P10N3or  C2019 04 09IGredacted;H4q/jt-6gAy]K#?lLM]bg')(D!^J8-L;BC$f=1^,UF51
     P10N3or  C2019 04 10.39755 14 49 45.65 +20 38 00.0    ~4AAX       VNEOCPI52
     P10N3or  C2019 04 10.40522 14 49 45.47 +20 38 03.2    ~4AAX 21.1 GVNEOCPI52
     P10N3or  C2019 04 10.41289 14 49 45.24 +20 38 05.9    ~4AAX       VNEOCPI52
     P10N3or  C2019 04 14.32670 14 48 07.30 +20 59 21.8    ~4E8m 21.8 GVNEOCPV06
     P10N3or  C2019 04 14.33558 14 48 07.10 +20 59 24.5    ~4E8m 21.4 GVNEOCPV06
     P10N3or  C2019 04 14.34597 14 48 06.81 +20 59 27.9    ~4E8m 21.6 GVNEOCPV06
     P10N3or  C2019 04 14.35332 14 48 06.62 +20 59 30.1    ~4E8m 21.8 GVNEOCPV06
     P10N3or ^C2019 04 15B1X;#_i;GVBQ8f,PkEclick^=`Z:WPVo\here27HD-K)vf+,/6xO695
     P10N3or ^C2019 04 15BNtAforf7[+PW2fC#4g0:q,Vlilj?hs90_+k`6E:Sexplanation695
     P10N3or  C2019 04 16.35229 14 47 14.33 +21 09 44.1    ~4G9X 21.6 GVNEOCPV06
     P10N3or  C2019 04 16.35646 14 47 14.21 +21 09 45.2    ~4G9X 21.1 GVNEOCPV06
     P10N3or  C2019 04 16.36380 14 47 14.04 +21 09 47.7    ~4G9X 22.1 GVNEOCPV06
     P10N3or  C2019 04 16.36785 14 47 13.94 +21 09 48.7    ~4G9X 21.8 GVNEOCPV06

Station data:
(695) Kitt Peak  (N31.958398 W111.594670)  US/Arizona.
(F51) Pan-STARRS 1, Haleakala  (N20.707235 W156.255910)  US/Hawaii.
   Observers N. Primak, A. Schultz, S. Watters, J. Thiel, T. Goggia. Measurer
   PS1 Science Consortium. 1.8-m Ritchey-Chrétien + CCD.
(I52) Steward Observatory, Mt. Lemmon Station  (N32.442547 W110.788920)
   US/Arizona.  Observers T. A. Pruyne, B. M. Africano, E. J. Christensen, G.
   A. Farneth, D. C. Fuls, A. R. Gibbs, A. D. Grauer, H. Groeller, J. A.
   Johnson, R. A. Kowalski, S. M. Larson, G. J. Leonard, R. L. Seaman, F. C.
   Shelly. 1.0-m reflector + CCD.
(V06) Catalina Sky Survey-Kuiper  (N32.416847 W110.732550)  US/Arizona.
   Observers T. A. Pruyne, B. M. Africano, E. J. Christensen, G. A. Farneth,
   D. C. Fuls, A. R. Gibbs, A. D. Grauer, H. Groeller, J. A. Johnson, R. A.
   Kowalski, S. M. Larson, G. J. Leonard, R. L. Seaman, F. C. Shelly. 1.55-m
   reflector + CCD.

Orbital elements:  P10N3or
   Perihelion 2014 Feb 15.682261 +/- 1386 TT = 16:22:27 (JD 2456704.182261)
Epoch 2019 Apr 16.0 TT = JDT 2458589.5   Ju: 0.1307           AutoNEOCP
M 154.71399916 +/- 110              (J2000 ecliptic)
n   0.08206255 +/- 0.000735         Peri.  265.30617 +/- 36
a   5.24452319 +/- 0.0313           Node   153.16850 +/- 0.6
e   0.0364336 +/- 0.0243            Incl.   33.65222 +/- 0.22
P  12.01                   H 14.4   G  0.15   U  8.5  
q 5.05344603 +/- 0.13    Q 5.43560035 +/- 0.133
From 16 observations 2019 Apr. 9-16; mean residual 0".21
Residuals in arcseconds: 
190409 F51  .11-  .27+    190414 V06  .34-  .09+    190416 V06  .21-  .10-    
190409 F51  .02+  .14+    190414 V06  .16+  .01-    190416 V06  .30-  .26-    
190409 F51  .12+  .10+    190414 V06  .04-  .13+    190416 V06  .12+  .04+    
190410 I52  .07+  .70-    190414 V06  .03+  .02+    190416 V06  .26+  .18-    
190410 I52  .23+  .08-    190415 695  .14+  .25+    
190410 I52  .32-  .03+    190415 695  .08+  .15+    

Ephemerides (geocentric):
Date (UTC) HH   RA              Dec         delta   r     elong  mag " sig PA
---- -- -- --  -------------   -----------  ------ ------ -----  --- ---- ---
2019 04 21 15  14 44 50.657   +21 34 33.42  4.5697 5.4191 144.5 21.9 1.93  38
2019 04 21 16  14 44 49.493   +21 34 44.39  4.5698 5.4191 144.5 21.9 1.95  38
2019 04 21 17  14 44 48.328   +21 34 55.35  4.5698 5.4191 144.5 21.9 1.97  38
2019 04 21 18  14 44 47.163   +21 35 06.30  4.5698 5.4191 144.5 21.9 1.99  38
2019 04 21 19  14 44 45.998   +21 35 17.23  4.5698 5.4191 144.5 21.9 2.01  38
2019 04 21 20  14 44 44.833   +21 35 28.15  4.5698 5.4191 144.5 21.9 2.03  38
2019 04 21 21  14 44 43.667   +21 35 39.06  4.5698 5.4191 144.5 21.9 2.05  38
2019 04 21 22  14 44 42.500   +21 35 49.96  4.5698 5.4191 144.5 21.9 2.08  38
2019 04 21 23  14 44 41.334   +21 36 00.84  4.5698 5.4191 144.5 21.9 2.10  38
2019 04 22 00  14 44 40.166   +21 36 11.71  4.5698 5.4192 144.5 21.9 2.12  38
2019 04 22 01  14 44 38.999   +21 36 22.57  4.5698 5.4192 144.5 21.9 2.14  38
2019 04 22 02  14 44 37.831   +21 36 33.41  4.5699 5.4192 144.5 21.9 2.16  38
2019 04 22 03  14 44 36.663   +21 36 44.24  4.5699 5.4192 144.5 21.9 2.18  38
2019 04 22 04  14 44 35.494   +21 36 55.06  4.5699 5.4192 144.4 21.9 2.20  38
2019 04 22 05  14 44 34.325   +21 37 05.86  4.5699 5.4192 144.4 21.9 2.22  38
2019 04 22 06  14 44 33.156   +21 37 16.66  4.5699 5.4192 144.4 21.9 2.24  38
2019 04 22 07  14 44 31.986   +21 37 27.44  4.5699 5.4192 144.4 21.9 2.27  38
2019 04 22 08  14 44 30.816   +21 37 38.20  4.5699 5.4192 144.4 21.9 2.29  38
2019 04 22 09  14 44 29.646   +21 37 48.95  4.5699 5.4192 144.4 21.9 2.31  38
2019 04 22 10  14 44 28.475   +21 37 59.69  4.5700 5.4192 144.4 21.9 2.33  38
2019 04 22 11  14 44 27.303   +21 38 10.42  4.5700 5.4192 144.4 21.9 2.35  38
2019 04 22 12  14 44 26.132   +21 38 21.14  4.5700 5.4192 144.4 21.9 2.37  38
2019 04 22 13  14 44 24.960   +21 38 31.84  4.5700 5.4192 144.4 21.9 2.40  38
2019 04 22 14  14 44 23.788   +21 38 42.52  4.5700 5.4192 144.4 21.9 2.42  38
2019 04 22 15  14 44 22.615   +21 38 53.20  4.5700 5.4192 144.4 21.9 2.44  38
2019 04 22 16  14 44 21.442   +21 39 03.86  4.5701 5.4192 144.4 21.9 2.46  38
2019 04 22 17  14 44 20.269   +21 39 14.51  4.5701 5.4192 144.4 21.9 2.49  38
2019 04 22 18  14 44 19.095   +21 39 25.15  4.5701 5.4192 144.4 21.9 2.51  37
2019 04 22 19  14 44 17.921   +21 39 35.77  4.5701 5.4192 144.4 21.9 2.53  37
2019 04 22 20  14 44 16.746   +21 39 46.38  4.5701 5.4192 144.4 21.9 2.55  37
2019 04 22 21  14 44 15.572   +21 39 56.98  4.5702 5.4192 144.4 21.9 2.58  37
2019 04 22 22  14 44 14.397   +21 40 07.56  4.5702 5.4192 144.4 21.9 2.60  37
2019 04 22 23  14 44 13.221   +21 40 18.13  4.5702 5.4193 144.4 21.9 2.62  37
2019 04 23 00  14 44 12.045   +21 40 28.69  4.5702 5.4193 144.4 21.9 2.65  37
2019 04 23 01  14 44 10.869   +21 40 39.23  4.5702 5.4193 144.4 21.9 2.67  37
2019 04 23 02  14 44 09.693   +21 40 49.76  4.5703 5.4193 144.4 21.9 2.69  37
2019 04 23 03  14 44 08.516   +21 41 00.28  4.5703 5.4193 144.4 21.9 2.72  37
2019 04 23 04  14 44 07.339   +21 41 10.79  4.5703 5.4193 144.4 21.9 2.74  37
2019 04 23 05  14 44 06.161   +21 41 21.28  4.5703 5.4193 144.4 21.9 2.76  37
2019 04 23 06  14 44 04.983   +21 41 31.76  4.5704 5.4193 144.4 21.9 2.79  37
2019 04 23 07  14 44 03.805   +21 41 42.22  4.5704 5.4193 144.4 21.9 2.81  37
2019 04 23 08  14 44 02.626   +21 41 52.67  4.5704 5.4193 144.4 21.9 2.83  37
2019 04 23 09  14 44 01.448   +21 42 03.11  4.5704 5.4193 144.4 21.9 2.86  37
2019 04 23 10  14 44 00.268   +21 42 13.54  4.5705 5.4193 144.4 21.9 2.88  37
2019 04 23 11  14 43 59.089   +21 42 23.95  4.5705 5.4193 144.4 21.9 2.91  37
2019 04 23 12  14 43 57.909   +21 42 34.35  4.5705 5.4193 144.4 21.9 2.93  37
2019 04 23 13  14 43 56.729   +21 42 44.74  4.5705 5.4193 144.4 21.9 2.95  37
2019 04 23 14  14 43 55.548   +21 42 55.11  4.5706 5.4193 144.3 21.9 2.98  37